Location: San Martino di Castrozza
(46.2667°N, 11.8000°E)
Time: 02:59:27
(UTC+00:00)

Cosmos 1484 Rocket - Pass Details

Date: 23 April 2021
Orbit: 506 x 557 km, 97.4° (Epoch: 15 May)

Event Time Altitude Azimuth Distance (km) Brightness Sun altitude
Rises 03:21:25 0° 18° (NNE) 2,747 7.2 -8.8°
Reaches altitude 10° 03:23:38 10° 24° (NNE) 1,850 6.4 -8.5°
Maximum altitude 03:27:30 47° 99° (E) 744 3.9 -7.9°
Drops below altitude 10° 03:31:22 10° 174° (S) 1,837 5.3 -7.3°
Sets 03:33:33 0° 180° (S) 2,725 6.1 -7.0°
